| time (UTC) | temp F | wind direction | speed MPH | gust MPH | rain 1hr in | rain 24hr in | rain mn in | humidity % | barometer mb |
| 20260502123008 | 37 | 219 | 0.0 | 1.0 | 0.00 | 0.00 | 0.00 | 66 | 1019.9 |
| 20260502121507 | 36 | 222 | 0.0 | 1.0 | 0.00 | 0.00 | 0.00 | 66 | 1019.9 |
| 20260502114505 | 35 | 195 | 0.0 | 2.0 | 0.00 | 0.00 | 0.00 | 67 | 1019.9 |
| 20260502113004 | 35 | 174 | 0.0 | 0.0 | 0.00 | 0.00 | 0.00 | 67 | 1019.8 |
| 20260502111503 | 35 | 207 | 0.0 | 1.0 | 0.00 | 0.00 | 0.00 | 67 | 1019.8 |
| 20260502110006 | 35 | 202 | 0.0 | 1.0 | 0.00 | 0.00 | 0.00 | 66 | 1019.8 |
| 20260502104502 | 35 | 217 | 0.0 | 2.0 | 0.00 | 0.00 | 0.00 | 66 | 1019.8 |
| 20260502103002 | 35 | 210 | 0.0 | 1.0 | 0.00 | 0.00 | 0.00 | 66 | 1019.8 |
| 20260502101702 | 36 | 214 | 0.0 | 1.0 | 0.00 | 0.00 | 0.00 | 66 | 1019.7 |
| 20260502070054 | 35 | 355 | 0.0 | 0.0 | 0.00 | 0.00 | 0.00 | 70 | 1019.8 |
| 20260502064548 | 35 | 355 | 0.0 | 0.0 | 0.00 | 0.00 | 0.00 | 70 | 1019.8 |
| 20260502063045 | 35 | 355 | 0.0 | 0.0 | 0.00 | 0.00 | 0.00 | 71 | 1019.8 |
| 20260502061544 | 36 | 355 | 0.0 | 0.0 | 0.00 | 0.00 | 0.00 | 69 | 1019.8 |
| 20260502060044 | 36 | 355 | 0.0 | 0.0 | 0.00 | 0.00 | 0.00 | 69 | 1019.8 |
| 20260502054541 | 36 | 355 | 0.0 | 0.0 | 0.00 | 0.00 | 0.00 | 69 | 1019.9 |
| 20260502053038 | 36 | 355 | 0.0 | 0.0 | 0.00 | 0.00 | 0.00 | 67 | 1019.9 |
| 20260502051535 | 37 | 355 | 0.0 | 0.0 | 0.00 | 0.00 | 0.00 | 65 | 1019.8 |
| 20260502050036 | 38 | 355 | 0.0 | 0.0 | 0.00 | 0.00 | 0.00 | 64 | 1019.8 |
| 20260502044532 | 38 | 355 | 0.0 | 0.0 | 0.00 | 0.00 | 0.00 | 64 | 1019.6 |
| 20260502043031 | 39 | 355 | 0.0 | 0.0 | 0.00 | 0.00 | 0.00 | 64 | 1019.6 |
| 20260502041534 | 39 | 355 | 0.0 | 0.0 | 0.00 | 0.00 | 0.00 | 63 | 1019.5 |
| 20260502040030 | 39 | 355 | 0.0 | 0.0 | 0.00 | 0.00 | 0.00 | 61 | 1019.5 |
| 20260502034537 | 39 | 355 | 0.0 | 0.0 | 0.00 | 0.00 | 0.00 | 61 | 1019.4 |
| 20260502033031 | 40 | 355 | 0.0 | 0.0 | 0.00 | 0.00 | 0.00 | 60 | 1019.5 |
| 20260502031528 | 40 | 355 | 0.0 | 0.0 | 0.00 | 0.00 | 0.00 | 59 | 1019.5 |
| 20260502030029 | 41 | 355 | 0.0 | 0.0 | 0.00 | 0.00 | 0.00 | 56 | 1019.4 |
| 20260502024527 | 41 | 355 | 0.0 | 0.0 | 0.00 | 0.00 | 0.00 | 56 | 1019.3 |
| 20260502023025 | 42 | 355 | 0.0 | 0.0 | 0.00 | 0.00 | 0.00 | 54 | 1019.1 |
| 20260502021524 | 43 | 355 | 0.0 | 0.0 | 0.00 | 0.00 | 0.00 | 53 | 1019.0 |
| 20260502020022 | 44 | 355 | 0.0 | 2.0 | 0.00 | 0.00 | 0.00 | 51 | 1018.8 |
| 20260502014544 | 46 | 323 | 0.0 | 1.0 | 0.00 | 0.00 | 0.00 | 49 | 1018.7 |
| 20260502013020 | 47 | 322 | 0.0 | 3.0 | 0.00 | 0.00 | 0.00 | 45 | 1018.5 |
| 20260502011520 | 48 | 335 | 0.0 | 4.0 | 0.00 | 0.00 | 0.00 | 42 | 1018.4 |
| 20260502010019 | 49 | 294 | 1.0 | 5.0 | 0.00 | 0.00 | 0.00 | 40 | 1018.3 |
| 20260502004519 | 50 | 327 | 2.0 | 7.0 | 0.00 | 0.00 | 0.00 | 40 | 1018.2 |
| 20260502003018 | 52 | 93 | 3.0 | 6.0 | 0.00 | 0.00 | 0.00 | 37 | 1018.0 |
| 20260502001520 | 53 | 282 | 2.0 | 7.0 | 0.00 | 0.00 | 0.00 | 36 | 1018.1 |
| 20260502000037 | 53 | 271 | 2.0 | 10.0 | 0.00 | 0.00 | 0.00 | 36 | 1017.9 |
| 20260501234516 | 53 | 271 | 2.0 | 6.0 | 0.00 | 0.00 | 0.00 | 37 | 1017.8 |
| 20260501233016 | 53 | 82 | 1.0 | 6.0 | 0.00 | 0.00 | 0.00 | 37 | 1017.9 |
| 20260501231519 | 52 | 86 | 3.0 | 7.0 | 0.00 | 0.00 | 0.00 | 38 | 1017.9 |
| 20260501230016 | 54 | 122 | 4.0 | 10.0 | 0.00 | 0.00 | 0.00 | 35 | 1017.8 |
| 20260501224511 | 55 | 354 | 2.0 | 6.0 | 0.00 | 0.00 | 0.00 | 36 | 1017.7 |
| 20260501223008 | 52 | 322 | 2.0 | 8.0 | 0.00 | 0.00 | 0.00 | 39 | 1017.8 |
| 20260501221517 | 52 | 343 | 2.0 | 7.0 | 0.00 | 0.00 | 0.00 | 40 | 1017.8 |
| 20260501220012 | 52 | 337 | 5.0 | 9.0 | 0.00 | 0.00 | 0.00 | 37 | 1017.7 |
| 20260501214509 | 51 | 95 | 2.0 | 8.0 | 0.00 | 0.00 | 0.00 | 41 | 1017.8 |
| 20260501213006 | 52 | 324 | 3.0 | 7.0 | 0.00 | 0.00 | 0.00 | 40 | 1017.8 |
| 20260501211608 | 53 | 8 | 3.0 | 7.0 | 0.00 | 0.00 | 0.00 | 39 | 1017.9 |
| 20260501210005 | 51 | 319 | 2.0 | 5.0 | 0.00 | 0.00 | 0.00 | 40 | 1018.0 |
| 20260501204502 | 51 | 194 | 3.0 | 9.0 | 0.00 | 0.00 | 0.00 | 39 | 1018.0 |
| 20260501203001 | 51 | 335 | 2.0 | 7.0 | 0.00 | 0.00 | 0.00 | 40 | 1018.2 |
| 20260501201501 | 52 | 328 | 1.0 | 8.0 | 0.00 | 0.00 | 0.00 | 43 | 1018.2 |
| 20260501200100 | 51 | 317 | 1.0 | 9.0 | 0.00 | 0.00 | 0.00 | 40 | 1018.2 |
| 20260501194559 | 51 | 332 | 2.0 | 8.0 | 0.00 | 0.00 | 0.00 | 41 | 1018.3 |
| 20260501193102 | 50 | 46 | 5.0 | 9.0 | 0.00 | 0.00 | 0.00 | 40 | 1018.4 |
| 20260501191558 | 50 | 314 | 4.0 | 13.0 | 0.00 | 0.00 | 0.00 | 43 | 1018.4 |
| 20260501190056 | 50 | 348 | 2.0 | 6.0 | 0.00 | 0.00 | 0.00 | 48 | 1018.3 |
| 20260501184556 | 49 | 319 | 2.0 | 7.0 | 0.00 | 0.00 | 0.00 | 46 | 1018.4 |
| 20260501183056 | 48 | 29 | 2.0 | 6.0 | 0.00 | 0.00 | 0.00 | 48 | 1018.4 |
| 20260501181552 | 48 | 39 | 1.0 | 8.0 | 0.00 | 0.00 | 0.00 | 50 | 1018.5 |
| 20260501180054 | 48 | 314 | 4.0 | 8.0 | 0.00 | 0.00 | 0.00 | 47 | 1018.5 |
| 20260501174551 | 47 | 4 | 3.0 | 8.0 | 0.00 | 0.00 | 0.00 | 47 | 1018.6 |
| 20260501173050 | 49 | 349 | 2.0 | 8.0 | 0.00 | 0.00 | 0.00 | 46 | 1018.5 |
| 20260501171553 | 48 | 344 | 2.0 | 8.0 | 0.00 | 0.00 | 0.00 | 51 | 1018.5 |
| 20260501170053 | 46 | 13 | 2.0 | 15.0 | 0.00 | 0.00 | 0.00 | 49 | 1018.5 |
| 20260501164546 | 48 | 1 | 4.0 | 11.0 | 0.00 | 0.00 | 0.00 | 49 | 1018.3 |
| 20260501163045 | 48 | 248 | 3.0 | 10.0 | 0.00 | 0.00 | 0.00 | 48 | 1018.3 |
| 20260501161541 | 47 | 351 | 2.0 | 7.0 | 0.00 | 0.00 | 0.00 | 51 | 1018.2 |
| 20260501160041 | 47 | 61 | 3.0 | 9.0 | 0.00 | 0.00 | 0.00 | 52 | 1018.3 |
| 20260501154547 | 46 | 316 | 5.0 | 11.0 | 0.00 | 0.00 | 0.00 | 54 | 1018.3 |
| 20260501153035 | 45 | 224 | 4.0 | 9.0 | 0.00 | 0.00 | 0.00 | 57 | 1018.2 |
| 20260501151533 | 45 | 110 | 3.0 | 9.0 | 0.00 | 0.00 | 0.00 | 60 | 1018.2 |